Regional Weather Roundup
Issued by NWS

Home | Current Version | Previous Version | Graphics & Text | Print | Product List | Glossary On
Versions: 1 2 3 4 5 6 7 8 9 10 11 12 13 14 15 16 17 18 19 20 21 22 23 24 25 26 27 28 29 30 31 32 33 34 35 36 37 38 39 40 41 42 43 44 45 46 47 48 49 50
000
ASUS45 KBOI 271310
RWRID
WEATHER ROUNDUP FOR IDAHO
NATIONAL WEATHER SERVICE BOISE ID
700 AM MDT MON APR 27 2015

NOTE: "FAIR" INDICATES FEW OR NO CLOUDS BELOW 12000 FEET
WITH NO SIGNIFICANT WEATHER AND/OR OBSTRUCTIONS TO VISIBILITY

IDZ012-014-271400-
SOUTHWEST IDAHO


CITY           SKY/WX    TMP DP  RH WIND       PRES   REMARKS
BOISE          CLEAR     36  25  64 CALM      30.29R
CALDWELL       CLEAR     37  21  52 CALM      30.32R
$$

IDZ016-017-271400-
SOUTHCENTRAL IDAHO


CITY           SKY/WX    TMP DP  RH WIND       PRES   REMARKS
BURLEY         CLEAR     30  21  69 S5        30.27R WCI  25
JEROME         CLEAR     31  19  61 SE5       30.27R WCI  26
TWIN FALLS     CLEAR     39  19  44 SW13      30.27R WCI  31
$$

IDZ019>023-271400-
SOUTHEAST IDAHO


CITY           SKY/WX    TMP DP  RH WIND       PRES   REMARKS
IDAHO FALLS    CLEAR     29  26  89 N5        30.28R WCI  24
POCATELLO      PTCLDY    32  26  78 SW3       30.29R
REXBURG        CLEAR     31  29  92 N3        30.27R
$$

IDZ006-010-011-018-031-032-271400-
CENTRAL IDAHO MOUNTAINS


CITY           SKY/WX    TMP DP  RH WIND       PRES   REMARKS
MCCALL         CLEAR     25  21  85 CALM      30.30R
HAILEY         PTCLDY    32  25  74 NW8       30.29S WCI  25
STANLEY          N/A     19  14  81 CALM      30.32F
SALMON         CLEAR     30  27  86 SE3       30.34R
CHALLIS        CLEAR     28  24  85 CALM      30.33R
$$

IDZ002-004-006-007-026-271400-
NORTHERN IDAHO


CITY           SKY/WX    TMP DP  RH WIND       PRES   REMARKS
LEWISTON       CLEAR     37  29  72 SE3       30.35R
LOWELL           N/A     34  32  92 CALM      30.44R
COEUR D`ALENE  CLEAR     34  28  80 E6        30.35R WCI  29
MULLAN PASS    CLEAR     32  20  61 W3        30.29R
$$


USA.gov is the U.S. government's official web portal to all federal, state and local government web resources and services.